Overview Statistics Trail Chart Weather Telemetry Raw packets
 

This is the latest recevied weather packets stored in our database for station/object LU1MQF-10. If no packets are shown the sender has not sent any weather packets the latest 10 day(s).

<< 18 19 20 21 22 23 24 >>
Time Temp. Humidity Pressure Rain* Wind** Luminosity Snow
1777826027 17.22° C 27% 1017.2 hPa - - - -
1777825126 17.22° C 27% 1017.5 hPa - - - -
1777824231 17.78° C 28% 1017.8 hPa - - - -
1777824226 17.78° C 28% 1017.8 hPa - - - -
1777823331 16.67° C 28% 1018.1 hPa - - - -
1777823326 16.67° C 28% 1018.1 hPa - - - -
1777822431 16.11° C 29% 1018.4 hPa - - - -
1777822426 16.11° C 29% 1018.4 hPa - - - -
1777821531 16.11° C 28% 1018.7 hPa - - - -
1777821526 16.11° C 28% 1018.7 hPa - - - -
1777820631 16.11° C 29% 1018.9 hPa - - - -
1777820626 16.11° C 29% 1018.9 hPa - - - -
1777819731 15.56° C 31% 1019.1 hPa - - - -
1777819725 15.56° C 31% 1019.1 hPa - - - -
1777818832 15.56° C 32% 1019.5 hPa - - - -
1777818825 15.56° C 32% 1019.5 hPa - - - -
1777817931 15° C 32% 1019.7 hPa - - - -
1777817925 15° C 32% 1019.7 hPa - - - -
1777817031 15° C 32% 1020.2 hPa - - - -
1777817025 15° C 32% 1020.2 hPa - - - -
1777816151 15° C 31% 1020.2 hPa - - - -
1777816125 15° C 31% 1020.2 hPa - - - -
1777815231 15° C 31% 1020.3 hPa - - - -
1777815225 15° C 31% 1020.3 hPa - - - -
1777814331 15° C 31% 1020.4 hPa - - - -

* Rain since midnight (hover to see other rain measurements)
** Current wind speed in m/s (hover to see current wind gust speed)